Wind_Speed
26 29 31 21 21 21 12 16 14 14 15 17 17 21 15 13 20 19 18 19 18 14 13 11 9 9 9 8 8 7 6 7 7 9 10 12 14 15 15 14 15 18 18 20
29 34 24 23 20 21 19 17 17 14 15 17 20 22 16 16 16 17 18 17 16 15 13 10 9 8 9 8 7 6 6 7 7 8 9 12 13 14 14 15 16 17 18 18
33 18 28 26 25 25 26 26 23 18 15 17 19 24 17 15 13 10 12 15 14 13 11 10 9 8 9 8 7 7 6 6 7 8 9 13 12 13 13 16 15 16 17 16
26 33 19 18 27 24 24 20 19 15 13 7 6 6 7 14 15 17 18 12 14 12 12 11 10 9 9 9 7 7 5 6 7 8 9 12 12 13 14 15 15 15 15 14
26 26 32 29 27 26 21 18 14 13 14 15 16 7 10 17 20 14 12 11 12 15 13 12 11 11 11 10 7 7 4 5 6 8 10 11 12 12 14 15 15 14 14 12
32 21 22 31 25 22 20 18 12 11 9 4 18 16 9 17 17 18 16 13 14 16 14 14 12 12 12 10 7 6 4 4 6 8 9 11 13 12 13 14 15 14 13 12
32 29 24 23 30 23 24 18 4 1 1 5 11 15 21 13 18 18 15 11 13 14 18 16 13 13 12 10 8 6 4 4 6 8 9 10 12 13 13 14 14 13 11 10
30 16 34 26 29 30 30 27 8 8 4 3 12 10 10 20 25 20 16 15 12 11 15 15 16 16 14 12 9 6 4 4 6 8 9 10 11 13 13 13 13 13 10 8
31 22 28 27 30 28 32 30 25 2 3 2 7 9 11 15 15 20 20 16 14 14 16 16 16 16 15 14 11 8 4 4 5 7 8 10 11 13 12 12 11 13 10 6
17 16 23 33 32 31 22 32 16 12 3 4 5 7 12 15 15 13 14 16 13 14 15 16 16 17 16 15 14 11 7 5 6 7 8 9 11 12 12 11 10 12 10 8
31 21 17 33 35 40 33 28 17 15 8 5 3 6 16 21 13 16 15 16 13 13 15 17 16 18 18 18 16 14 11 9 8 8 9 10 11 12 12 11 9 10 9 9
44 22 13 35 26 33 40 28 35 18 9 13 4 5 8 15 18 15 13 10 9 9 12 15 18 19 19 19 18 17 15 13 12 11 10 9 11 11 11 11 10 9 9 8
50 19 13 11 27 33 35 34 40 31 23 22 10 6 18 14 16 16 13 11 10 9 7 7 9 12 15 17 18 19 18 18 16 13 12 10 11 11 9 11 10 8 9 8
36 31 31 18 14 32 44 45 40 39 29 20 29 20 21 19 21 18 17 16 14 11 9 6 5 4 3 5 11 16 19 20 19 16 14 12 11 12 10 9 9 7 7 8
36 29 39 34 20 15 36 41 44 47 43 31 33 29 25 21 21 23 22 19 17 13 12 11 11 11 11 12 12 13 14 18 19 18 15 14 11 12 11 9 9 7 6 8
34 13 23 29 20 24 29 32 45 44 42 47 27 31 32 21 25 26 25 24 23 24 23 21 21 21 19 18 19 19 18 15 16 17 17 14 12 11 11 10 8 7 6 7
39 27 23 15 20 16 18 38 37 44 44 42 44 34 27 29 27 25 26 26 23 24 26 25 22 21 21 21 21 21 22 21 18 18 18 16 14 12 11 12 9 7 7 7
44 35 18 10 18 3 12 26 28 26 34 42 40 33 31 23 22 27 28 27 24 22 24 24 21 18 16 16 18 21 23 24 24 21 20 19 17 14 12 12 12 8 8 7
33 37 14 10 20 6 17 23 32 33 28 23 23 25 27 30 32 32 31 29 28 25 19 17 15 14 12 13 15 17 20 23 24 24 24 22 21 17 14 14 13 11 9 9
36 38 34 23 8 10 15 20 17 18 21 23 25 28 30 30 31 28 24 21 18 16 15 14 13 11 9 8 9 10 12 15 16 20 21 19 19 18 16 13 10 15 9 11
41 39 32 27 12 13 15 19 23 21 11 22 22 27 29 30 26 21 21 19 17 16 16 14 11 9 8 8 9 10 8 6 6 6 8 16 19 19 16 14 9 13 8 11
38 32 27 21 13 10 24 25 27 18 13 11 18 26 25 23 24 24 22 19 20 20 17 13 10 8 8 8 8 9 10 12 10 10 10 11 12 13 20 23 18 17 16 13
25 40 34 27 29 7 19 19 16 20 14 12 16 19 23 23 25 24 23 25 24 20 16 13 11 10 10 9 8 8 9 9 10 11 13 13 12 11 18 18 21 21 21 19
32 42 28 29 30 32 11 20 20 16 16 16 15 13 18 21 24 25 26 26 24 21 15 12 13 13 13 12 11 11 11 11 11 11 12 14 16 17 18 19 23 18 21 24
44 41 36 36 23 28 28 20 18 20 21 19 17 15 17 21 23 24 26 25 23 18 14 13 15 16 17 18 18 19 19 19 18 17 16 16 16 15 18 19 17 20 29 37
43 43 44 43 38 29 21 25 25 26 24 20 19 19 22 21 22 25 26 25 22 18 18 19 19 21 22 22 23 24 25 26 26 27 27 25 24 21 21 22 23 21 23 27
Wind_Direction
215 216 219 228 231 228 232 225 230 235 242 253 258 265 253 256 258 260 264 268 270 264 260 269 274 278 276 269 261 247 241 270 292 303 307 317 324 327 330 329 322 327 338 338
218 226 228 229 228 224 230 233 237 236 245 263 274 265 267 270 261 255 259 258 250 246 244 254 259 264 262 261 250 238 255 275 295 303 308 320 322 329 329 323 325 331 337 339
225 230 225 226 226 223 226 234 241 242 259 270 282 276 275 248 230 238 266 257 248 236 243 246 245 244 248 240 226 244 261 287 298 302 312 320 319 329 329 322 325 333 336 342
234 229 226 224 224 223 227 233 239 243 250 257 262 279 264 228 236 266 275 254 238 239 244 238 235 233 229 220 226 248 273 291 303 308 313 321 320 323 335 329 329 331 337 347
221 228 227 229 223 217 227 232 236 238 241 256 249 253 256 245 252 248 254 256 247 238 240 234 227 227 218 218 223 250 269 287 302 310 313 321 323 316 330 333 329 333 339 347
224 226 219 226 222 217 227 229 227 220 221 249 235 219 251 236 239 254 250 247 247 242 243 237 230 221 215 217 223 246 264 289 306 312 314 322 327 314 319 333 335 335 338 342
218 221 220 218 215 208 210 198 128 215 206 215 194 208 229 225 239 242 243 239 252 248 234 225 219 214 212 216 225 244 268 301 314 314 316 322 327 319 314 328 338 333 337 344
202 211 213 210 208 206 199 192 183 194 191 204 189 224 234 225 233 240 249 255 249 239 219 214 214 212 211 215 223 239 263 303 316 319 322 323 330 326 316 320 335 330 334 344
203 213 210 209 212 205 202 204 218 139 134 132 203 237 231 223 228 233 245 255 248 234 221 216 215 216 214 214 221 229 247 288 307 317 324 327 330 327 324 316 330 329 331 334
215 208 206 202 204 207 207 206 197 205 136 228 239 240 221 218 224 226 235 244 244 233 228 223 220 219 216 220 224 226 239 266 293 308 323 328 329 326 327 321 324 327 328 324
211 208 194 194 201 205 200 198 196 195 207 167 161 235 209 222 226 234 240 243 242 234 230 223 219 221 221 223 225 230 239 258 279 293 308 320 323 323 327 324 319 321 325 322
207 206 195 198 205 205 210 210 203 189 194 208 195 219 202 215 222 232 238 236 234 233 231 228 227 227 224 226 230 234 242 254 268 279 291 304 310 319 324 324 320 312 318 318
213 211 183 201 216 213 213 208 208 211 219 212 183 215 204 202 213 218 220 217 202 199 189 192 212 224 230 235 240 244 247 253 262 269 278 288 295 305 313 316 321 304 309 309
216 210 207 205 212 213 212 215 213 217 221 216 224 222 210 212 216 220 218 202 186 185 181 178 183 199 231 260 261 257 253 253 255 259 264 272 280 293 304 306 313 299 290 298
211 216 216 218 228 221 223 221 217 220 220 216 229 228 229 233 236 224 223 214 213 222 242 254 258 259 261 271 273 272 271 260 253 252 254 260 266 276 290 291 301 301 275 288
202 219 214 210 215 217 220 226 225 222 226 225 228 236 235 223 221 222 226 230 240 255 265 267 269 274 277 276 274 265 257 261 259 252 250 254 257 266 280 284 289 296 269 263
205 208 195 198 207 204 230 221 224 223 224 223 223 231 228 221 220 223 231 241 250 261 272 281 286 285 282 279 272 264 250 244 247 246 245 244 245 249 262 279 270 279 276 252
196 197 190 177 166 180 231 214 218 223 226 227 230 233 236 234 230 228 234 241 249 260 272 277 280 281 278 272 264 255 249 243 235 237 240 238 240 248 252 262 261 251 255 241
228 215 182 194 191 248 229 208 205 206 214 215 210 217 227 231 234 234 240 245 257 262 258 264 270 272 267 259 259 254 245 242 239 238 237 233 235 240 255 266 264 248 235 216
205 204 200 178 166 206 239 208 195 200 216 212 213 211 215 223 227 235 239 237 232 242 249 247 249 256 262 266 265 266 262 250 245 241 242 244 246 245 240 254 260 265 222 205
187 194 196 195 209 230 206 182 182 192 224 220 215 219 216 221 234 237 226 226 236 225 220 220 223 232 246 252 249 238 233 231 222 218 236 242 242 248 251 247 247 257 223 224
183 177 192 197 199 244 195 182 195 217 210 207 214 217 215 219 224 226 228 224 207 204 204 205 213 229 249 260 262 255 248 248 251 252 251 251 256 255 241 240 234 237 227 232
192 188 187 199 204 189 216 223 229 227 227 212 200 200 205 213 214 218 211 196 194 194 199 204 212 224 233 239 245 253 260 261 254 248 252 257 259 267 266 261 246 242 238 242
196 199 204 203 210 218 177 194 192 190 201 198 194 191 188 191 195 193 191 192 193 194 197 214 227 236 241 246 251 258 263 268 271 271 270 272 264 263 265 260 243 247 247 238
198 195 201 204 209 213 212 202 190 196 202 200 192 187 190 188 189 193 192 194 197 203 222 237 242 245 250 255 260 264 268 270 273 275 277 276 273 263 263 263 258 256 253 252
208 210 204 209 214 225 219 206 199 200 202 210 205 188 181 188 191 189 193 198 207 229 244 250 252 255 263 267 267 269 271 273 274 273 275 277 275 271 268 264 263 261 255 255
Height
3087 3087 3086 3092 3095 3098 3100 3100 3100 3101 3102 3103 3102 3100 3103 3104 3101 3101 3101 3102 3102 3103 3103 3102 3102 3102 3102 3101 3102 3101 3100 3099 3099 3098 3097 3095 3093 3091 3090 3086 3083 3078 3074 3068
3082 3079 3088 3090 3093 3095 3096 3097 3098 3099 3099 3100 3098 3095 3098 3098 3097 3097 3097 3097 3098 3098 3099 3100 3100 3100 3099 3099 3100 3100 3101 3099 3097 3096 3095 3093 3091 3088 3088 3085 3081 3077 3073 3068
3076 3080 3081 3084 3087 3089 3090 3092 3095 3097 3097 3097 3096 3092 3092 3093 3093 3093 3093 3093 3094 3094 3095 3096 3097 3097 3097 3097 3098 3099 3099 3098 3096 3094 3093 3092 3090 3087 3085 3083 3079 3075 3072 3068
3074 3075 3077 3079 3081 3085 3087 3089 3091 3094 3095 3096 3096 3091 3088 3088 3089 3090 3090 3090 3090 3091 3092 3093 3094 3094 3094 3095 3096 3097 3097 3096 3095 3093 3092 3090 3088 3087 3083 3080 3078 3074 3072 3067
3065 3068 3071 3073 3074 3080 3083 3085 3088 3090 3092 3092 3092 3094 3083 3084 3085 3086 3086 3087 3087 3089 3090 3091 3092 3092 3092 3092 3093 3094 3095 3094 3093 3091 3091 3089 3086 3084 3081 3079 3077 3073 3071 3067
3061 3063 3066 3068 3072 3077 3079 3083 3085 3088 3089 3090 3086 3089 3081 3081 3081 3082 3083 3084 3085 3086 3087 3088 3090 3091 3092 3092 3091 3092 3092 3092 3091 3090 3089 3087 3085 3083 3081 3078 3075 3072 3070 3067
3054 3058 3059 3062 3067 3071 3073 3079 3084 3090 3092 3084 3079 3082 3075 3076 3077 3078 3079 3080 3081 3081 3083 3085 3086 3087 3089 3091 3091 3091 3091 3091 3090 3089 3087 3085 3083 3081 3080 3077 3075 3071 3069 3067
3044 3052 3051 3055 3058 3060 3065 3072 3071 3081 3082 3075 3076 3072 3067 3070 3072 3074 3075 3077 3078 3078 3079 3082 3083 3085 3086 3087 3089 3090 3089 3088 3088 3087 3086 3083 3081 3080 3078 3076 3074 3071 3068 3066
3036 3041 3042 3048 3052 3060 3061 3064 3068 3070 3071 3071 3069 3066 3066 3065 3067 3069 3071 3072 3074 3075 3076 3078 3080 3082 3083 3083 3086 3087 3087 3087 3086 3085 3084 3082 3080 3079 3077 3074 3073 3071 3068 3065
3029 3035 3036 3040 3047 3052 3053 3059 3063 3067 3074 3075 3063 3062 3060 3061 3063 3065 3068 3069 3070 3072 3074 3075 3077 3078 3080 3081 3082 3084 3085 3085 3084 3083 3082 3080 3078 3077 3075 3073 3072 3070 3068 3065
3023 3027 3031 3035 3035 3039 3046 3047 3053 3057 3059 3060 3064 3055 3056 3058 3060 3061 3063 3064 3066 3068 3070 3072 3073 3074 3076 3078 3080 3081 3082 3082 3082 3081 3080 3078 3077 3075 3074 3072 3070 3069 3066 3065
3015 3020 3022 3024 3027 3032 3036 3040 3043 3045 3050 3051 3052 3051 3052 3055 3057 3058 3060 3061 3063 3065 3066 3068 3069 3071 3072 3074 3076 3078 3079 3079 3079 3078 3077 3076 3075 3073 3072 3070 3070 3068 3066 3064
3004 3011 3016 3021 3025 3026 3026 3031 3036 3037 3041 3041 3048 3047 3048 3052 3054 3055 3057 3059 3061 3063 3063 3065 3067 3068 3070 3070 3073 3075 3076 3076 3076 3076 3075 3074 3073 3071 3069 3068 3068 3066 3065 3064
2999 3000 3001 3002 3004 3011 3018 3023 3029 3033 3034 3035 3035 3041 3043 3047 3050 3053 3054 3056 3059 3061 3062 3064 3066 3067 3068 3069 3069 3070 3071 3071 3071 3072 3071 3071 3070 3069 3067 3065 3065 3064 3063 3062
2993 2993 2996 2999 3001 3006 3009 3014 3019 3020 3025 3028 3031 3034 3039 3043 3047 3049 3051 3053 3056 3058 3059 3060 3062 3064 3064 3065 3066 3067 3067 3067 3067 3067 3067 3067 3067 3066 3065 3063 3063 3062 3061 3061
2988 2989 2990 2995 2999 3002 3004 3007 3010 3013 3016 3021 3025 3027 3032 3040 3042 3044 3047 3049 3051 3052 3054 3056 3058 3059 3059 3060 3061 3061 3062 3062 3063 3063 3064 3064 3063 3063 3062 3061 3061 3060 3059 3058
2980 2985 2988 2992 2995 2998 3000 2994 3000 3004 3008 3013 3015 3020 3025 3031 3036 3039 3042 3044 3046 3047 3048 3049 3050 3051 3052 3054 3054 3055 3056 3056 3057 3058 3058 3059 3059 3059 3059 3059 3058 3057 3057 3056
2968 2979 2984 2986 2990 2996 2987 2988 2995 2997 3001 3006 3011 3017 3021 3027 3031 3033 3035 3037 3040 3041 3041 3043 3044 3044 3045 3046 3047 3047 3048 3050 3051 3052 3052 3054 3055 3055 3055 3055 3055 3053 3054 3054
2967 2974 2979 2982 2983 2984 2982 2982 2984 2988 2996 3000 3006 3011 3015 3018 3022 3025 3029 3032 3034 3035 3036 3037 3038 3039 3039 3040 3040 3040 3041 3043 3044 3046 3047 3047 3049 3050 3052 3053 3053 3050 3050 3050
2960 2967 2969 2976 2978 2979 2974 2980 2985 2989 2990 2993 3000 3005 3008 3010 3013 3018 3022 3025 3028 3030 3032 3034 3035 3036 3037 3037 3037 3038 3037 3038 3039 3041 3042 3044 3045 3046 3047 3049 3049 3050 3046 3047
2952 2957 2963 2964 2970 2969 2968 2974 2980 2985 2986 2987 2993 2998 3002 3006 3012 3015 3017 3021 3024 3026 3029 3031 3032 3033 3034 3035 3035 3036 3036 3037 3037 3038 3038 3039 3040 3042 3043 3045 3045 3047 3043 3045
2936 2944 2954 2961 2963 2964 2961 2967 2973 2978 2979 2983 2986 2991 2997 3002 3005 3009 3013 3016 3019 3023 3025 3028 3029 3031 3032 3032 3033 3033 3033 3034 3034 3036 3036 3036 3037 3038 3039 3040 3040 3041 3040 3043
2932 2931 2935 2944 2944 2949 2956 2960 2967 2972 2977 2979 2982 2984 2989 2995 3000 3004 3008 3012 3016 3020 3023 3025 3026 3028 3029 3029 3030 3030 3031 3031 3032 3032 3033 3032 3032 3033 3034 3035 3035 3036 3036 3038
2921 2928 2933 2938 2942 2946 2953 2958 2963 2967 2973 2976 2979 2983 2986 2991 2995 3000 3005 3009 3013 3018 3020 3022 3023 3024 3025 3026 3026 3027 3027 3028 3028 3028 3028 3028 3027 3028 3028 3028 3029 3031 3032 3032
2915 2922 2927 2933 2936 2943 2950 2954 2959 2964 2968 2972 2975 2979 2983 2989 2994 2999 3003 3007 3011 3014 3018 3019 3020 3020 3021 3021 3022 3022 3023 3023 3024 3024 3024 3023 3023 3022 3023 3024 3023 3024 3025 3026
2908 2912 2918 2922 2931 2938 2945 2950 2954 2959 2964 2969 2972 2975 2981 2987 2992 2996 3001 3006 3009 3011 3013 3015 3015 3016 3015 3015 3017 3017 3017 3018 3018 3018 3017 3017 3017 3017 3017 3018 3017 3017 3018 3018